User: anonymous   Login
Location: Newark
(37.8333°N, 119.5000°W)
Time: 23:54:03
(UTC+00:00)
Language:

deb Explorer IX - Orbit

View from above orbital plane
View from above orbital plane
View from above satellite
View from above satellite

Ground track
Ground track

The orbit data is extracted from the following two-line orbital elements,

1    85U 61004C   19235.02039776  .00001614  00000-0  35719-3 0  9998
2    85  38.7760 107.3301 0396189 304.8415  51.5670 14.19994117888499
Epoch (UTC): 23 August 2019 00:29:22
Eccentricity: 0.0396189
inclination: 38.7760°
perigee height: 540 km
apogee height: 1111 km
right ascension of ascending node: 107.3301°
argument of perigee: 304.8415°
revolutions per day: 14.19994117
mean anomaly at epoch: 51.5670°
orbit number at epoch: 88849

The dashed part of the orbit path shows where the satellite is in the earth's shadow,  

DLR